WY1U-1 Weather Reports


time (UTC)temp
C
wind
direction
speed
KPH
gust
KPH
rain 1hr
cm
rain 24hr
cm
rain mn
cm
humidity
%
barometer
mb
20260504170150 20 238 8.0 20.9 0.00 0.00 0.00 32 1010.7
20260504160150 19 237 11.3 33.8 0.00 0.00 0.00 33 1011.4
20260504150150 17 261 8.0 22.5 0.00 0.00 0.00 35 1012.1
20260504140150 16 250 8.0 22.5 0.00 0.00 0.00 38 1012.6
20260504130150 15 257 6.4 16.1 0.00 0.00 0.00 45 1013.2
20260504120150 10 189 0.0 4.8 0.00 0.00 0.00 66 1013.7
20260504110150 7 179 0.0 1.6 0.00 0.00 0.00 71 1013.6
20260504100149 9 264 0.0 1.6 0.00 0.00 0.00 59 1013.1
20260504080150 5 218 0.0 1.6 0.00 0.00 0.00 78 1012.7
20260504070151 6 0 0.0 0.0 0.00 0.00 0.00 74 1012.5
20260504060150 5 0 0.0 0.0 0.00 0.00 0.00 71 1012.5
20260504050150 6 0 0.0 0.0 0.00 0.00 0.00 67 1012.4
20260504043149 6 0 0.0 0.0 0.00 0.00 0.00 63 1012.4
20260504040150 7 0 0.0 0.0 0.00 0.00 0.00 60 1012.2
20260504033149 7 0 0.0 0.0 0.00 0.00 0.00 58 1012.1
20260504030149 8 0 0.0 0.0 0.00 0.00 0.00 55 1012.1
20260504023149 8 0 0.0 0.0 0.00 0.00 0.00 54 1012.0
20260504020149 8 0 0.0 0.0 0.00 0.00 0.00 53 1011.9
20260504013149 9 0 0.0 0.0 0.00 0.00 0.00 53 1011.6
20260504010150 10 0 0.0 0.0 0.00 0.00 0.00 52 1011.2
20260504000150 12 0 0.0 0.0 0.00 0.00 0.00 43 1010.4
20260503230150 14 273 0.0 3.2 0.00 0.00 0.00 36 1009.9
20260503220150 13 283 3.2 12.9 0.00 0.00 0.00 36 1009.7
20260503210150 12 305 6.4 20.9 0.00 0.00 0.00 38 1009.7
20260503190150 13 339 8.0 16.1 0.00 0.00 0.00 38 1009.4
20260503180150 11 342 4.8 14.5 0.00 0.00 0.00 45 1009.7